SCP
-0 0 0 0 0 0 0 0 0 0 -0 0 0 0 0 0 0 1 1 0 0 1 0 0 0 0 0 0 0 0 0 0 0 0 0 0 0 0 0 0 0 0 0
-0 0 0 -0 0 0 0 0 0 -0 -0 -0 0 0 0 0 0 0 -0 2 1 0 0 0 0 0 0 0 0 0 0 0 0 0 0 0 0 0 0 0 0 0 0
-0 -0 -0 0 0 0 0 0 0 0 0 0 0 0 0 0 0 0 0 1 0 0 0 0 1 0 0 0 0 0 0 0 0 0 1 0 0 0 0 0 0 0 -0
-0 -0 -0 0 0 -0 0 -0 0 0 0 0 0 0 0 0 0 0 1 1 2 1 0 0 0 0 0 0 0 0 0 0 1 1 0 0 0 0 0 0 0 0 0
-0 -0 0 0 0 0 0 0 0 0 1 0 0 0 0 0 0 0 1 1 1 0 0 0 0 0 0 0 0 0 0 0 0 1 0 0 0 0 0 0 0 0 0
0 -0 0 0 0 -0 0 0 0 0 0 0 0 0 0 0 1 1 0 0 1 0 0 0 0 0 0 0 0 0 0 0 0 0 0 0 0 1 1 0 0 0 0
0 0 0 0 0 0 0 0 0 0 0 1 1 1 0 1 1 1 0 0 0 0 0 0 0 0 0 0 0 0 0 0 0 0 0 0 0 1 1 0 0 0 0
0 0 0 0 0 0 1 1 0 1 0 2 1 1 1 1 0 0 0 0 0 0 0 0 0 0 0 0 0 0 0 0 0 0 0 0 0 0 1 1 0 0 0
0 0 0 0 0 0 0 1 1 2 0 0 3 1 0 0 0 0 0 0 0 0 0 0 0 0 0 0 0 0 0 0 0 0 0 0 0 0 1 0 0 0 0
0 0 0 0 0 0 0 0 1 1 1 1 3 2 2 1 0 0 0 0 0 0 0 0 0 0 0 0 0 -0 0 0 0 0 0 0 0 0 0 0 0 0 0
0 0 0 0 0 0 0 1 1 1 1 1 1 3 2 1 0 0 0 0 0 0 0 0 0 0 -0 0 0 0 0 0 0 0 0 0 0 0 0 0 0 0 0
0 0 1 0 0 0 0 0 1 1 1 1 1 1 2 2 2 0 0 0 0 0 -0 -0 -0 -0 -0 -0 0 0 0 0 0 0 0 0 0 0 0 0 0 0 0
0 0 1 0 0 0 0 1 1 1 1 1 2 1 1 3 2 0 0 0 0 0 0 -0 0 -0 -0 0 0 0 0 0 0 0 0 0 0 0 0 0 0 0 0
0 0 0 0 0 0 0 0 0 1 1 1 1 1 2 1 2 1 0 0 0 0 0 0 0 0 0 0 0 0 0 0 0 0 0 0 0 0 0 0 0 0 0
0 0 0 0 0 0 0 1 0 1 1 1 1 1 2 2 2 2 0 0 0 0 0 0 0 0 0 0 0 0 0 0 -0 0 0 0 0 0 0 0 0 0 0
0 -0 0 0 0 0 0 1 0 0 1 1 1 1 1 1 1 2 0 0 1 0 0 0 0 0 0 0 0 0 -0 -0 -0 -0 0 0 0 0 0 0 0 0 0
-0 0 0 0 0 0 0 0 1 0 1 1 1 1 1 1 1 1 0 0 0 0 0 0 0 0 0 0 0 0 -0 -0 -0 -0 0 0 0 0 0 0 0 0 0
0 0 0 0 0 0 0 0 0 0 0 0 0 0 0 1 1 2 1 0 0 0 0 0 0 0 0 0 0 0 0 -0 -0 -0 -0 0 0 0 0 0 0 0 0
0 0 0 0 0 0 0 0 0 0 0 0 1 0 1 1 1 2 2 0 0 0 0 0 0 0 0 0 0 0 -0 0 -0 0 -0 0 0 0 0 0 0 0 0
0 0 0 0 0 0 0 0 0 0 0 1 1 1 1 0 1 3 0 0 0 0 0 0 0 0 0 0 0 0 0 0 0 0 -0 -0 -0 0 0 0 0 0 0
0 0 1 1 1 0 0 0 0 0 1 0 0 0 1 0 0 1 0 0 0 0 0 0 0 0 0 0 0 0 0 0 0 0 0 -0 0 0 0 0 0 0 0
1 1 1 1 2 1 0 0 0 0 1 0 0 0 0 1 0 0 0 0 0 0 0 0 0 0 0 0 0 0 0 0 0 0 -0 0 0 0 -0 0 0 0 0
1 2 2 2 1 0 0 0 0 0 1 1 1 0 0 0 0 0 0 0 0 0 0 0 0 0 0 0 0 0 -0 0 0 0 -0 -0 0 0 0 0 0 0 0
3 4 3 2 1 0 0 0 0 0 1 0 0 0 0 0 0 0 0 0 0 0 0 -0 0 0 0 0 0 0 -0 -0 -0 -0 -0 0 -0 0 0 0 -0 0 0
5 3 2 1 1 0 0 0 0 0 1 0 0 0 0 0 0 0 0 0 0 0 0 0 0 0 0 0 0 0 0 0 -0 -0 -0 0 0 0 0 0 -0 -0 0
3 2 2 1 0 0 0 0 0 0 1 0 0 0 0 0 0 0 0 0 0 0 0 0 0 0 0 0 -0 0 0 0 0 0 -0 0 0 0 0 0 0 0 0
Wind_Speed_500mb
4 3 3 1 2 5 8 8 16 7 10 13 14 24 38 39 32 40 35 58 35 34 36 24 20 20 21 24 22 22 21 26 31 36 39 42 44 43 40 43 41 29 30
2 2 4 3 6 9 7 10 13 11 17 16 17 21 27 32 35 36 36 37 33 19 43 27 30 25 41 29 25 26 23 21 24 28 38 41 43 46 45 47 46 40 31
7 6 2 5 7 5 20 17 16 7 12 16 18 21 26 31 34 31 26 22 32 17 13 1 34 22 37 40 27 31 26 24 25 28 38 41 41 42 45 46 50 43 38
2 4 19 20 8 2 7 7 9 7 12 15 18 18 22 28 30 26 24 25 24 27 24 12 37 34 28 32 38 30 24 27 29 29 28 32 37 39 43 47 49 47 46
4 1 7 10 5 6 9 7 8 10 16 11 18 17 21 18 20 22 35 31 19 16 17 10 18 31 34 36 43 34 31 28 24 24 25 30 33 35 40 45 50 48 44
5 7 8 6 7 8 9 12 11 10 15 14 11 18 10 8 9 18 46 32 23 17 16 24 24 27 37 45 31 30 32 28 19 19 23 27 29 34 39 44 47 52 51
8 8 5 8 7 6 11 8 10 15 14 22 17 18 6 18 20 36 40 35 25 12 27 33 35 34 41 39 46 38 36 32 25 33 28 29 27 28 35 44 46 48 54
7 6 4 6 10 8 21 16 15 18 19 25 26 22 13 20 23 33 52 76 43 39 34 26 15 21 28 29 30 37 37 33 40 22 27 27 27 26 32 41 45 46 52
9 12 12 13 17 17 18 9 25 27 24 26 33 28 16 20 27 43 62 83 58 39 38 44 24 24 26 34 36 40 45 38 32 31 25 24 21 24 30 38 45 49 54
14 15 18 20 20 20 22 24 25 26 33 32 31 34 39 47 36 44 62 84 66 26 36 32 25 27 31 26 28 36 33 36 36 29 24 25 24 21 24 30 41 49 54
21 20 19 18 21 22 27 34 34 34 31 35 36 40 38 49 46 51 66 64 34 30 23 20 19 26 29 29 31 36 34 30 31 25 30 25 29 30 26 27 36 43 53
22 17 15 20 26 30 32 32 41 42 39 40 36 33 44 43 51 60 52 60 52 26 14 12 22 29 21 12 21 23 28 27 27 30 30 36 36 34 30 29 30 37 43
18 15 15 21 25 31 40 44 40 43 35 33 39 35 38 47 45 56 53 41 30 11 17 23 20 25 7 10 10 15 21 23 27 33 33 31 35 35 38 31 28 31 38
25 24 26 29 31 34 34 34 30 33 29 36 41 43 42 36 44 51 42 24 17 12 28 28 19 10 10 9 10 5 13 16 26 32 33 32 27 28 31 34 32 29 35
29 30 27 26 27 29 28 28 27 34 38 36 42 45 44 44 44 41 34 16 8 13 36 38 20 11 8 6 8 10 7 13 19 26 27 28 27 25 28 34 34 32 34
31 30 31 30 25 25 25 28 28 30 38 40 44 47 49 43 42 34 27 10 6 10 16 24 16 13 13 7 13 5 16 20 22 23 23 23 22 23 27 31 35 33 30
26 25 24 23 23 23 22 27 33 37 37 45 45 45 45 39 32 25 18 9 8 8 18 28 14 18 14 21 16 17 22 15 20 20 17 18 18 19 20 27 35 35 32
29 28 26 25 23 21 22 29 31 34 40 42 40 40 36 36 30 22 15 6 3 9 23 30 20 22 19 20 17 19 22 17 14 17 16 16 17 17 18 23 31 34 31
34 30 27 24 20 20 25 27 30 32 31 31 34 34 36 29 27 17 9 6 9 24 20 27 25 23 23 22 21 16 26 19 15 13 16 17 18 16 15 22 27 30 30
37 33 27 23 19 23 23 29 39 36 24 21 27 29 27 29 19 13 8 5 11 24 24 28 23 28 24 24 20 18 20 18 14 14 14 16 20 18 14 19 25 27 31
35 31 25 20 21 15 27 35 32 19 22 23 21 21 25 26 19 11 8 3 18 23 31 23 24 28 27 29 23 20 21 18 18 20 15 17 17 15 14 19 25 26 31
31 27 24 21 22 13 27 30 21 15 19 17 20 25 28 25 18 8 3 15 22 34 29 18 16 26 27 29 27 23 26 19 15 18 22 15 23 14 3 11 18 26 32
27 29 22 33 23 26 26 20 16 12 7 10 18 22 17 25 15 10 9 13 23 25 25 21 20 24 28 29 30 29 25 19 18 17 20 19 22 14 17 21 21 29 32
33 30 41 25 22 24 20 13 9 9 13 15 17 18 18 15 13 9 9 11 23 20 26 11 20 24 22 28 28 30 22 19 13 18 20 23 21 19 16 17 21 29 31
40 44 32 24 25 15 14 10 5 2 15 16 19 15 10 8 7 8 7 15 15 16 23 20 24 26 26 28 28 26 27 16 14 11 18 18 24 17 19 13 19 27 33
44 35 34 29 19 11 9 7 6 4 16 17 16 15 8 1 3 5 9 12 15 12 14 13 17 30 28 22 26 19 19 17 15 13 18 16 22 22 14 30 21 29 37
Wind_Direction_500mb
356 16 261 80 333 313 287 310 287 327 316 284 280 310 308 301 305 310 287 320 256 283 247 226 234 217 231 242 237 227 217 223 224 222 221 222 220 218 213 211 212 223 232
101 50 357 316 304 354 343 284 287 293 316 309 312 314 303 303 303 300 295 300 307 248 255 223 225 258 239 231 240 244 235 234 230 225 224 224 223 219 214 212 213 224 232
315 81 334 138 44 349 6 337 358 324 327 314 308 309 310 310 312 310 308 297 314 300 276 192 269 273 233 241 232 239 235 251 245 232 219 217 224 223 215 211 212 208 203
305 313 307 23 10 100 350 10 10 344 326 316 313 315 316 323 322 331 311 290 294 281 288 231 262 253 245 239 235 237 234 246 237 233 224 214 215 218 220 216 216 213 206
254 305 296 352 356 356 301 33 331 339 305 328 327 319 312 333 329 328 352 338 314 312 304 289 231 244 256 249 243 229 229 239 228 229 230 218 207 208 215 217 216 209 199
244 270 301 310 310 311 330 321 310 326 301 326 327 295 272 315 321 1 350 341 320 304 311 309 289 262 250 253 255 243 226 219 224 228 228 222 212 204 207 216 214 211 204
233 259 277 348 339 318 294 328 318 312 306 295 310 304 284 226 263 296 306 319 305 310 318 304 276 271 274 263 244 235 227 224 227 249 235 225 219 206 202 208 213 211 203
208 233 267 294 272 300 298 303 310 308 308 293 308 310 286 254 252 278 298 321 289 294 310 316 314 297 263 274 237 233 234 233 245 226 218 217 210 200 198 203 208 206 199
233 263 269 273 279 308 301 315 307 293 303 299 287 284 289 271 269 280 291 302 315 285 291 301 287 290 277 257 250 220 228 224 231 208 214 207 208 194 198 201 205 203 205
251 274 283 274 269 278 288 296 300 291 291 287 289 291 281 285 282 287 288 304 313 288 280 292 280 285 281 267 251 232 232 212 225 191 200 204 192 194 193 198 200 204 204
259 264 271 274 273 286 288 285 302 302 297 296 296 293 286 295 288 275 284 306 321 325 285 285 269 297 296 268 260 238 238 246 211 214 211 210 208 207 196 193 195 200 204
246 254 254 271 278 282 294 293 288 299 299 297 293 292 292 293 292 290 303 308 324 328 293 266 284 322 298 292 236 226 231 234 232 212 200 203 205 198 191 185 191 191 195
265 277 283 287 286 280 281 295 299 296 309 298 301 292 289 299 306 301 316 317 324 300 257 247 275 310 266 255 238 211 229 223 214 206 195 200 200 195 200 195 189 186 188
257 271 275 280 283 289 295 295 302 296 299 294 292 295 299 304 301 311 320 312 308 228 229 239 273 274 240 235 231 257 233 218 201 198 192 197 202 188 192 194 193 188 183
261 283 282 285 286 292 297 294 303 295 309 310 298 305 310 311 310 311 322 299 259 198 215 234 266 224 185 220 195 187 200 195 206 174 187 197 205 205 198 197 195 191 193
252 262 266 278 285 290 295 294 302 304 295 303 309 311 316 317 316 313 317 269 234 253 190 217 201 162 159 184 142 145 144 145 145 162 178 190 200 201 203 201 200 200 193
244 266 283 287 287 290 302 309 309 322 315 313 319 322 324 325 324 314 317 241 225 244 196 165 176 180 191 146 141 150 124 145 155 160 166 178 185 192 197 200 202 201 202
250 265 272 278 278 289 307 303 315 310 321 326 322 327 334 336 331 314 323 276 275 183 165 159 178 167 162 165 146 147 148 155 155 159 167 177 177 179 193 195 197 198 202
253 249 256 265 273 292 294 309 324 312 318 321 326 333 337 338 336 323 277 247 199 154 154 151 165 163 168 160 144 146 153 176 159 167 165 175 182 177 191 194 189 191 197
249 250 242 247 267 279 299 313 318 322 324 331 336 333 331 333 332 314 294 213 190 152 141 150 160 161 163 155 149 173 162 154 164 150 141 166 176 178 187 192 190 188 192
247 238 232 241 255 285 286 316 318 338 326 336 349 353 334 339 332 310 310 250 168 130 152 160 161 166 165 165 169 173 164 157 185 172 156 160 162 171 174 182 187 187 191
236 220 224 232 241 270 298 312 321 332 340 -0 357 352 1 346 355 350 312 131 135 132 157 169 163 180 180 171 165 187 180 174 176 177 144 150 151 164 169 177 191 188 189
210 209 210 227 247 277 300 308 317 342 359 345 344 4 4 1 12 20 104 134 144 151 167 153 182 188 189 179 182 183 192 194 174 171 160 149 153 187 176 211 217 198 194
203 197 216 225 247 271 296 324 330 38 312 326 348 4 355 7 45 83 104 148 151 158 170 169 173 195 200 179 202 181 194 178 176 159 195 166 165 167 174 215 202 203 198
198 210 220 216 241 264 294 327 121 69 311 326 334 347 352 354 66 97 143 171 172 167 168 172 168 175 190 199 187 177 183 168 177 175 181 162 170 176 174 224 217 204 203
205 206 206 215 234 250 288 328 163 99 315 327 334 340 342 45 104 120 154 184 192 189 185 175 175 188 199 186 163 161 171 181 190 177 204 173 187 180 191 175 244 216 210
Wind_Speed_850mb
4 3 3 1 2 5 8 8 16 7 10 13 14 24 38 39 32 40 35 58 35 34 36 24 20 20 21 24 22 22 21 26 31 36 39 42 44 43 40 43 41 29 30
2 2 4 3 6 9 7 10 13 11 17 16 17 21 27 32 35 36 36 37 33 19 43 27 30 25 41 29 25 26 23 21 24 28 38 41 43 46 45 47 46 40 31
7 6 2 5 7 5 20 17 16 7 12 16 18 21 26 31 34 31 26 22 32 17 13 1 34 22 37 40 27 31 26 24 25 28 38 41 41 42 45 46 50 43 38
2 4 19 20 8 2 7 7 9 7 12 15 18 18 22 28 30 26 24 25 24 27 24 12 37 34 28 32 38 30 24 27 29 29 28 32 37 39 43 47 49 47 46
4 1 7 10 5 6 9 7 8 10 16 11 18 17 21 18 20 22 35 31 19 16 17 10 18 31 34 36 43 34 31 28 24 24 25 30 33 35 40 45 50 48 44
5 7 8 6 7 8 9 12 11 10 15 14 11 18 10 8 9 18 46 32 23 17 16 24 24 27 37 45 31 30 32 28 19 19 23 27 29 34 39 44 47 52 51
8 8 5 8 7 6 11 8 10 15 14 22 17 18 6 18 20 36 40 35 25 12 27 33 35 34 41 39 46 38 36 32 25 33 28 29 27 28 35 44 46 48 54
7 6 4 6 10 8 21 16 15 18 19 25 26 22 13 20 23 33 52 76 43 39 34 26 15 21 28 29 30 37 37 33 40 22 27 27 27 26 32 41 45 46 52
9 12 12 13 17 17 18 9 25 27 24 26 33 28 16 20 27 43 62 83 58 39 38 44 24 24 26 34 36 40 45 38 32 31 25 24 21 24 30 38 45 49 54
14 15 18 20 20 20 22 24 25 26 33 32 31 34 39 47 36 44 62 84 66 26 36 32 25 27 31 26 28 36 33 36 36 29 24 25 24 21 24 30 41 49 54
21 20 19 18 21 22 27 34 34 34 31 35 36 40 38 49 46 51 66 64 34 30 23 20 19 26 29 29 31 36 34 30 31 25 30 25 29 30 26 27 36 43 53
22 17 15 20 26 30 32 32 41 42 39 40 36 33 44 43 51 60 52 60 52 26 14 12 22 29 21 12 21 23 28 27 27 30 30 36 36 34 30 29 30 37 43
18 15 15 21 25 31 40 44 40 43 35 33 39 35 38 47 45 56 53 41 30 11 17 23 20 25 7 10 10 15 21 23 27 33 33 31 35 35 38 31 28 31 38
25 24 26 29 31 34 34 34 30 33 29 36 41 43 42 36 44 51 42 24 17 12 28 28 19 10 10 9 10 5 13 16 26 32 33 32 27 28 31 34 32 29 35
29 30 27 26 27 29 28 28 27 34 38 36 42 45 44 44 44 41 34 16 8 13 36 38 20 11 8 6 8 10 7 13 19 26 27 28 27 25 28 34 34 32 34
31 30 31 30 25 25 25 28 28 30 38 40 44 47 49 43 42 34 27 10 6 10 16 24 16 13 13 7 13 5 16 20 22 23 23 23 22 23 27 31 35 33 30
26 25 24 23 23 23 22 27 33 37 37 45 45 45 45 39 32 25 18 9 8 8 18 28 14 18 14 21 16 17 22 15 20 20 17 18 18 19 20 27 35 35 32
29 28 26 25 23 21 22 29 31 34 40 42 40 40 36 36 30 22 15 6 3 9 23 30 20 22 19 20 17 19 22 17 14 17 16 16 17 17 18 23 31 34 31
34 30 27 24 20 20 25 27 30 32 31 31 34 34 36 29 27 17 9 6 9 24 20 27 25 23 23 22 21 16 26 19 15 13 16 17 18 16 15 22 27 30 30
37 33 27 23 19 23 23 29 39 36 24 21 27 29 27 29 19 13 8 5 11 24 24 28 23 28 24 24 20 18 20 18 14 14 14 16 20 18 14 19 25 27 31
35 31 25 20 21 15 27 35 32 19 22 23 21 21 25 26 19 11 8 3 18 23 31 23 24 28 27 29 23 20 21 18 18 20 15 17 17 15 14 19 25 26 31
31 27 24 21 22 13 27 30 21 15 19 17 20 25 28 25 18 8 3 15 22 34 29 18 16 26 27 29 27 23 26 19 15 18 22 15 23 14 3 11 18 26 32
27 29 22 33 23 26 26 20 16 12 7 10 18 22 17 25 15 10 9 13 23 25 25 21 20 24 28 29 30 29 25 19 18 17 20 19 22 14 17 21 21 29 32
33 30 41 25 22 24 20 13 9 9 13 15 17 18 18 15 13 9 9 11 23 20 26 11 20 24 22 28 28 30 22 19 13 18 20 23 21 19 16 17 21 29 31
40 44 32 24 25 15 14 10 5 2 15 16 19 15 10 8 7 8 7 15 15 16 23 20 24 26 26 28 28 26 27 16 14 11 18 18 24 17 19 13 19 27 33
44 35 34 29 19 11 9 7 6 4 16 17 16 15 8 1 3 5 9 12 15 12 14 13 17 30 28 22 26 19 19 17 15 13 18 16 22 22 14 30 21 29 37
Wind_Direction_850mb
356 16 261 80 333 313 287 310 287 327 316 284 280 310 308 301 305 310 287 320 256 283 247 226 234 217 231 242 237 227 217 223 224 222 221 222 220 218 213 211 212 223 232
101 50 357 316 304 354 343 284 287 293 316 309 312 314 303 303 303 300 295 300 307 248 255 223 225 258 239 231 240 244 235 234 230 225 224 224 223 219 214 212 213 224 232
315 81 334 138 44 349 6 337 358 324 327 314 308 309 310 310 312 310 308 297 314 300 276 192 269 273 233 241 232 239 235 251 245 232 219 217 224 223 215 211 212 208 203
305 313 307 23 10 100 350 10 10 344 326 316 313 315 316 323 322 331 311 290 294 281 288 231 262 253 245 239 235 237 234 246 237 233 224 214 215 218 220 216 216 213 206
254 305 296 352 356 356 301 33 331 339 305 328 327 319 312 333 329 328 352 338 314 312 304 289 231 244 256 249 243 229 229 239 228 229 230 218 207 208 215 217 216 209 199
244 270 301 310 310 311 330 321 310 326 301 326 327 295 272 315 321 1 350 341 320 304 311 309 289 262 250 253 255 243 226 219 224 228 228 222 212 204 207 216 214 211 204
233 259 277 348 339 318 294 328 318 312 306 295 310 304 284 226 263 296 306 319 305 310 318 304 276 271 274 263 244 235 227 224 227 249 235 225 219 206 202 208 213 211 203
208 233 267 294 272 300 298 303 310 308 308 293 308 310 286 254 252 278 298 321 289 294 310 316 314 297 263 274 237 233 234 233 245 226 218 217 210 200 198 203 208 206 199
233 263 269 273 279 308 301 315 307 293 303 299 287 284 289 271 269 280 291 302 315 285 291 301 287 290 277 257 250 220 228 224 231 208 214 207 208 194 198 201 205 203 205
251 274 283 274 269 278 288 296 300 291 291 287 289 291 281 285 282 287 288 304 313 288 280 292 280 285 281 267 251 232 232 212 225 191 200 204 192 194 193 198 200 204 204
259 264 271 274 273 286 288 285 302 302 297 296 296 293 286 295 288 275 284 306 321 325 285 285 269 297 296 268 260 238 238 246 211 214 211 210 208 207 196 193 195 200 204
246 254 254 271 278 282 294 293 288 299 299 297 293 292 292 293 292 290 303 308 324 328 293 266 284 322 298 292 236 226 231 234 232 212 200 203 205 198 191 185 191 191 195
265 277 283 287 286 280 281 295 299 296 309 298 301 292 289 299 306 301 316 317 324 300 257 247 275 310 266 255 238 211 229 223 214 206 195 200 200 195 200 195 189 186 188
257 271 275 280 283 289 295 295 302 296 299 294 292 295 299 304 301 311 320 312 308 228 229 239 273 274 240 235 231 257 233 218 201 198 192 197 202 188 192 194 193 188 183
261 283 282 285 286 292 297 294 303 295 309 310 298 305 310 311 310 311 322 299 259 198 215 234 266 224 185 220 195 187 200 195 206 174 187 197 205 205 198 197 195 191 193
252 262 266 278 285 290 295 294 302 304 295 303 309 311 316 317 316 313 317 269 234 253 190 217 201 162 159 184 142 145 144 145 145 162 178 190 200 201 203 201 200 200 193
244 266 283 287 287 290 302 309 309 322 315 313 319 322 324 325 324 314 317 241 225 244 196 165 176 180 191 146 141 150 124 145 155 160 166 178 185 192 197 200 202 201 202
250 265 272 278 278 289 307 303 315 310 321 326 322 327 334 336 331 314 323 276 275 183 165 159 178 167 162 165 146 147 148 155 155 159 167 177 177 179 193 195 197 198 202
253 249 256 265 273 292 294 309 324 312 318 321 326 333 337 338 336 323 277 247 199 154 154 151 165 163 168 160 144 146 153 176 159 167 165 175 182 177 191 194 189 191 197
249 250 242 247 267 279 299 313 318 322 324 331 336 333 331 333 332 314 294 213 190 152 141 150 160 161 163 155 149 173 162 154 164 150 141 166 176 178 187 192 190 188 192
247 238 232 241 255 285 286 316 318 338 326 336 349 353 334 339 332 310 310 250 168 130 152 160 161 166 165 165 169 173 164 157 185 172 156 160 162 171 174 182 187 187 191
236 220 224 232 241 270 298 312 321 332 340 -0 357 352 1 346 355 350 312 131 135 132 157 169 163 180 180 171 165 187 180 174 176 177 144 150 151 164 169 177 191 188 189
210 209 210 227 247 277 300 308 317 342 359 345 344 4 4 1 12 20 104 134 144 151 167 153 182 188 189 179 182 183 192 194 174 171 160 149 153 187 176 211 217 198 194
203 197 216 225 247 271 296 324 330 38 312 326 348 4 355 7 45 83 104 148 151 158 170 169 173 195 200 179 202 181 194 178 176 159 195 166 165 167 174 215 202 203 198
198 210 220 216 241 264 294 327 121 69 311 326 334 347 352 354 66 97 143 171 172 167 168 172 168 175 190 199 187 177 183 168 177 175 181 162 170 176 174 224 217 204 203
205 206 206 215 234 250 288 328 163 99 315 327 334 340 342 45 104 120 154 184 192 189 185 175 175 188 199 186 163 161 171 181 190 177 204 173 187 180 191 175 244 216 210